Terug naar catalogus

FENGYUN 1C DEB

LostPO
NORAD 31764·DEBRIS·🇨🇳 China

Gelanceerd May 10, 1999 vanaf Taiyuan Satellite Launch Center

Loading…

Volgende Passages (komende 24 uur)

TLE

VerouderdSource: Space-Track

Epoch: Oct 22, 2012, 11:25 UTC

1 31764U 99025CFP 12296.47618687  .00001733  00000-0  12488-2 0  9992
2 31764  98.1533  24.1924 0256818  55.6463 309.3154 13.83258966274811

Volg FENGYUN 1C DEB in realtime met AllMySat

Download on the App Store